Weather History for KISW - September, 2013

Change the Weather History Date:

Sunday, September 22, 2013

  Actual Average Record
Temperature  
Mean Temperature 48 °F -  
Max Temperature 64 °F 63 °F 81 °F (2004)
Min Temperature 33 °F 41 °F 23 °F (1974)
Degree Days  
Heating Degree Days 16    
Moisture  
Dew Point 37 °F    
Average Humidity 73    
Maximum Humidity 100    
Minimum Humidity 38    
Precipitation  
Precipitation 0.00 in - - ()
Sea Level Pressure  
Sea Level Pressure 30.07 in    
Wind  
Wind Speed 3 mph (ESE)    
Max Wind Speed 8 mph    
Max Gust Speed -    
Visibility 8 miles    
Events      
Averages and records for this station are not official NWS values.
T = Trace of Precipitation, MM = Missing Value Source: NWS Daily Summary

Daily Weather History Graph

Daily Weather History Graph

Search for Another Location

Airport or City:

Trip Planner

Search our weather history database for the weather conditions in past years. The results will help you decide how hot, cold, wet, or windy it might be!

Date:

Astronomy

Sep. 22, 2013 Rise Set
Actual Time 6:46 AM CDT 6:56 PM CDT
Civil Twilight 6:17 AM CDT 7:25 PM CDT
Nautical Twilight 5:43 AM CDT 7:59 PM CDT
Astronomical Twilight 5:08 AM CDT 8:33 PM CDT
Moon 8:36 PM CDT (9/22) 10:16 AM CDT (9/22)
Length of Visible Light 13h 07m
Length of Day
12h 09m
Waning Gibbous, 88% of the Moon is Illuminated
Sep 22
Waning Gibbous
Sep 26
Last Quarter
Oct 4
New
Oct 11
First Quarter
Oct 18
Full

Hourly Weather History & Observations

Time (CDT) Temp. Windchill Dew Point Humidity Pressure Visibility Wind Dir Wind Speed Gust Speed Precip Events Conditions
12:54 AM 44.1 °F 42.5 °F 39.9 °F 85% 30.02 in 10.0 mi ENE 3.5 mph - N/A   Clear
1:54 AM 42.1 °F - 37.9 °F 85% 30.04 in 10.0 mi Calm Calm - N/A   Clear
2:54 AM 37.9 °F - 36.0 °F 93% 30.05 in 10.0 mi Calm Calm - N/A   Clear
3:54 AM 39.0 °F - 37.0 °F 93% 30.05 in 10.0 mi Calm Calm - N/A   Clear
4:54 AM 37.0 °F - 36.0 °F 96% 30.06 in 10.0 mi Calm Calm - N/A   Clear
5:22 AM 35.6 °F - 33.8 °F 93% 30.04 in 1.5 mi Calm Calm - N/A   Clear
5:28 AM 35.6 °F - 33.8 °F 93% 30.04 in 0.8 mi Calm Calm - N/A   Clear
5:32 AM 35.6 °F - 33.8 °F 93% 30.04 in 1.2 mi Calm Calm - N/A   Clear
5:39 AM 35.6 °F - 33.8 °F 93% 30.04 in 3.0 mi Calm Calm - N/A   Clear
5:54 AM 36.0 °F - 34.0 °F 93% 30.07 in 10.0 mi Calm Calm - N/A   Clear
6:50 AM 33.8 °F - 32.0 °F 93% 30.06 in 1.8 mi Calm Calm - N/A   Clear
6:54 AM 34.0 °F - 33.1 °F 96% 30.09 in 1.8 mi Calm Calm - N/A   Clear
6:57 AM 33.8 °F 30.8 °F 33.8 °F 100% 30.06 in 4.0 mi ENE 3.5 mph - N/A   Clear
7:54 AM 42.1 °F 40.2 °F 39.0 °F 89% 30.11 in 10.0 mi East 3.5 mph - N/A   Clear
8:54 AM 46.9 °F - 37.9 °F 71% 30.12 in - East 6.9 mph - N/A   Clear
9:54 AM 52.0 °F - 37.0 °F 57% 30.12 in 10.0 mi East 6.9 mph - N/A   Clear
10:54 AM 54.0 °F - 37.0 °F 53% 30.11 in 10.0 mi Calm Calm - N/A   Clear
11:54 AM 57.0 °F - 37.9 °F 49% 30.10 in 10.0 mi East 3.5 mph - N/A   Clear
12:54 PM 60.1 °F - 37.9 °F 44% 30.09 in 10.0 mi SE 4.6 mph - N/A   Clear
1:54 PM 61.0 °F - 37.9 °F 42% 30.06 in 10.0 mi ENE 5.8 mph - N/A   Clear
2:54 PM 64.0 °F - 37.9 °F 38% 30.05 in 10.0 mi ENE 6.9 mph - N/A   Clear
3:54 PM 63.0 °F - 37.9 °F 40% 30.04 in 10.0 mi ESE 8.1 mph - N/A   Clear
4:54 PM 63.0 °F - 37.9 °F 40% 30.03 in 10.0 mi SE 8.1 mph - N/A   Clear
5:54 PM 61.0 °F - 39.0 °F 44% 30.03 in 10.0 mi SE 5.8 mph - N/A   Clear
6:54 PM 55.9 °F - 39.9 °F 55% 30.05 in 10.0 mi SE 5.8 mph - N/A   Clear
7:54 PM 52.0 °F - 39.9 °F 63% 30.06 in 10.0 mi ESE 5.8 mph - N/A   Clear
8:54 PM 51.1 °F - 39.9 °F 66% 30.07 in 10.0 mi ESE 6.9 mph - N/A   Clear
9:54 PM 48.9 °F - 41.0 °F 74% 30.08 in 10.0 mi ESE 6.9 mph - N/A   Clear
10:54 PM 46.9 °F - 42.1 °F 83% 30.08 in 10.0 mi ESE 6.9 mph - N/A   Clear
11:54 PM 46.0 °F 43.1 °F 42.1 °F 86% 30.09 in 10.0 mi ESE 5.8 mph - N/A   Clear